Location: Cedarville Mobile Home Park
(38.5815°N, 75.0860°W)
Time: 14:24:02
(UTC+00:00)

Hubble Space Telescope - Visible Passes

Search period start: 24 January 2026 00:00
Search period end: 03 February 2026 00:00
Orbit: 478 x 481 km, 28.5° (Epoch: 24 January)

Date Brightness Start Highest point End Pass type
(mag) Time Alt. Az. Time Alt. Az. Time Alt. Az.
24 Jan 3.1 23:09:41 10° S 23:10:41 11° SSE 23:11:43 10° SSE visible
25 Jan 3.6 00:47:19 10° SW 00:47:31 11° SW 00:47:31 11° SW visible
25 Jan 3.1 22:39:46 10° S 22:40:48 11° SSE 22:41:51 10° SSE visible
26 Jan 2.8 00:17:25 10° SW 00:19:22 17° S 00:19:22 17° S visible
26 Jan 2.6 23:47:30 10° SW 23:50:03 17° S 23:51:12 15° SSE visible
27 Jan 2.8 23:17:34 10° SW 23:20:07 17° S 23:22:40 10° SE visible
28 Jan 2.8 22:47:36 10° SW 22:50:09 17° S 22:52:42 10° SE visible
29 Jan 3.1 00:27:14 10° SW 00:29:01 14° SSW 00:29:01 14° SSW visible
29 Jan 3.0 23:57:15 10° SW 23:59:22 14° S 00:00:53 12° SSE visible
30 Jan 3.1 23:27:14 10° SW 23:29:21 14° S 23:31:27 10° SSE visible
31 Jan 3.2 22:57:14 10° SW 22:59:19 14° S 23:01:25 10° SSE visible
